{"data":{"norad_id":47652,"epoch":"2026-05-25T00:48:12.209760Z","epoch_age_seconds":68011,"freshness":"FRESH","line1":"1 47652U 21012AJ  26145.03347465  .00080877  00000+0  11902-2 0  9994","line2":"2 47652  53.1554  59.7462 0007740  93.0664 267.1233 15.54737650291917","mean_motion":15.5473765,"eccentricity":0.000774,"inclination_deg":53.1554,"raan_deg":59.7462,"arg_perigee_deg":93.0664,"mean_anomaly_deg":267.1233,"bstar":0.0011902,"rev_number":29191,"period_min":92.620127903894,"perigee_km":397.66682115467,"apogee_km":408.16389020126,"semimajor_km":6781.052355678,"source":"CELESTRAK","updated_at":"2026-05-25T13:38:16.562314Z"}}